SCP
0 0 0 0 0 0 0 0 0 0 0 0 0 0 0 0 0 0 0 0 0 0 0 0 0 0 0 0 0 0 0 0 0 0 0 0 0 0
0 0 0 0 0 0 0 0 0 0 0 0 0 0 0 0 0 0 0 0 0 0 0 0 0 0 0 0 0 0 0 0 0 0 0 0 0 0
0 0 0 0 0 0 0 0 0 0 0 0 0 0 0 0 0 0 0 0 0 0 0 0 0 0 0 0 0 0 0 0 0 0 0 0 0 0
0 0 0 0 0 0 0 0 0 0 0 0 0 0 0 0 0 0 0 0 0 0 0 0 0 0 0 0 0 0 0 0 0 0 0 0 0 0
0 0 0 0 0 0 0 0 0 0 0 0 0 0 0 0 0 0 0 0 0 0 0 0 0 0 0 0 0 0 0 0 0 0 0 0 0 0
0 0 0 0 0 0 0 0 0 0 0 0 0 0 0 0 0 0 0 0 0 0 0 0 0 0 0 0 0 0 0 0 0 0 0 0 0 0
0 0 0 0 0 0 0 0 0 0 0 0 0 0 0 0 0 0 0 0 0 0 0 0 0 0 0 0 0 0 0 0 0 0 0 0 0 0
0 0 0 0 0 0 0 0 0 0 0 0 0 0 0 0 0 0 0 0 0 0 0 0 0 0 0 0 0 0 0 0 0 0 0 0 0 0
0 0 0 0 0 0 0 0 0 0 0 0 0 0 0 0 0 0 0 0 0 0 0 0 0 0 0 0 0 0 0 0 0 0 0 0 0 0
0 0 0 0 0 0 0 0 0 0 0 0 0 0 0 0 0 0 0 0 0 0 0 0 0 0 0 0 0 0 0 0 0 0 0 0 0 0
0 0 0 0 0 0 0 0 0 0 0 0 0 0 0 0 0 0 0 0 0 0 0 0 0 0 0 0 0 0 0 0 0 0 0 0 0 0
0 0 0 0 0 0 0 0 0 0 0 0 0 0 0 0 0 0 0 0 0 0 0 0 0 0 0 0 0 0 0 0 0 0 0 0 0 0
0 0 0 0 0 0 0 0 0 0 0 0 0 0 0 0 0 0 0 0 0 0 0 0 0 0 0 0 0 0 0 0 0 0 0 0 0 0
-0 -0 0 0 0 0 0 0 0 0 0 0 0 0 0 0 0 0 0 0 0 0 0 0 0 0 0 0 0 0 0 0 0 0 0 0 0 0
-0 -0 0 0 0 0 0 0 0 0 0 0 0 0 0 0 0 0 0 0 0 0 0 0 0 0 0 0 0 0 0 0 0 0 0 0 0 0
0 -0 0 0 0 0 0 0 0 0 0 0 0 0 0 0 0 0 0 0 0 0 0 0 0 0 0 0 0 0 0 0 0 0 0 0 0 0
0 0 0 0 0 0 0 0 0 0 0 0 0 0 0 0 0 0 0 0 0 0 0 0 0 0 0 0 0 0 0 0 0 0 0 0 0 0
0 0 0 0 0 0 0 0 0 0 0 0 0 0 0 0 0 0 0 0 0 0 0 -0 0 0 0 0 0 0 0 0 0 0 0 0 0 0
0 0 0 0 0 0 0 0 0 0 0 0 0 0 0 0 0 0 0 0 0 0 0 0 0 0 0 0 0 0 0 0 0 0 0 0 0 0
0 0 0 0 0 0 0 0 0 0 0 0 0 0 0 0 0 0 0 0 0 0 0 0 0 0 0 0 0 0 0 0 0 0 0 0 0 0
0 0 0 0 0 0 0 0 0 0 0 0 0 0 0 0 0 0 0 0 0 0 0 0 0 0 0 0 0 0 0 0 0 0 0 0 0 0
0 0 0 0 0 0 0 0 0 0 0 0 0 0 0 0 0 0 0 0 0 0 0 0 0 0 0 0 0 0 0 0 0 0 0 0 0 0
0 0 0 0 0 0 0 0 0 0 0 0 0 0 0 0 0 0 0 0 0 0 0 0 0 0 0 0 0 0 0 0 0 0 0 0 0 0
Wind_Speed
4 4 3 3 2 2 2 2 3 2 1 3 3 4 4 3 6 5 5 10 11 10 11 11 11 11 11 11 11 11 10 10 10 9 9 8 7 6
3 5 4 3 3 3 2 2 2 3 1 1 2 2 4 4 7 5 5 10 11 10 10 11 11 11 10 10 11 11 11 10 9 9 9 8 8 8
4 5 4 3 3 3 3 3 3 3 3 1 2 2 3 4 5 4 4 5 5 11 11 11 11 11 10 10 10 11 11 11 10 10 9 9 8 8
4 4 4 3 4 3 3 3 2 2 3 1 2 3 3 3 4 4 4 5 4 9 11 11 11 11 10 10 10 10 10 10 10 10 10 9 9 8
3 3 3 4 3 2 3 3 2 3 3 2 1 2 2 3 3 4 4 4 5 7 9 10 11 10 10 10 9 9 9 9 9 9 9 9 9 9
3 3 2 2 2 2 2 2 3 3 3 3 2 2 2 3 2 3 4 4 4 5 6 7 9 10 10 9 9 9 8 8 8 9 9 9 9 9
3 2 2 3 3 2 2 2 3 3 2 2 2 2 2 2 2 2 2 3 3 3 3 4 4 4 5 7 8 9 9 8 8 8 9 9 9 9
3 2 2 3 4 5 5 5 4 3 2 2 1 0 1 1 1 1 1 2 3 3 3 3 3 3 3 3 6 8 9 9 8 8 9 9 9 10
2 2 2 2 3 3 5 6 5 4 3 4 2 2 1 2 0 1 1 1 1 3 2 2 3 3 3 4 7 7 8 8 9 9 9 9 10 10
2 2 2 1 1 3 3 3 3 2 1 1 2 2 2 2 2 2 1 0 2 2 1 1 3 3 3 3 5 6 7 8 8 8 8 9 9 9
1 1 2 1 2 4 4 3 2 2 2 2 1 1 1 1 1 2 1 1 1 2 1 0 2 3 3 3 4 6 7 7 8 9 9 10 9 9
1 0 2 2 3 3 3 3 1 1 1 2 3 4 3 3 2 1 1 1 0 2 2 0 1 2 3 2 2 3 4 7 8 9 10 10 10 6
2 1 2 3 3 3 3 3 3 2 1 1 1 2 2 2 2 1 1 2 2 2 2 0 1 1 2 3 3 3 3 4 4 5 8 10 10 7
3 3 3 4 3 3 2 3 3 2 1 1 1 1 1 2 2 2 1 1 2 3 3 1 1 1 2 3 4 3 3 4 4 4 5 8 8 9
3 5 5 4 3 1 1 2 2 2 1 1 1 2 2 2 2 2 2 1 2 3 2 2 3 2 2 3 4 4 4 4 4 4 5 5 5 5
2 3 3 3 2 1 0 0 1 2 2 2 2 2 1 1 1 1 1 1 2 3 3 2 3 3 3 4 4 5 4 4 4 5 5 6 5 5
4 2 1 1 1 1 1 1 1 1 2 2 2 2 1 1 2 1 1 1 1 3 4 3 3 3 5 4 5 6 5 5 5 5 5 7 7 6
6 3 3 3 3 3 3 2 2 3 3 3 2 2 2 2 2 2 1 2 3 3 4 3 3 3 3 4 7 6 5 5 6 6 5 7 9 7
4 3 4 4 4 4 4 4 4 3 3 3 3 4 3 3 3 3 3 3 3 4 4 3 2 2 5 8 5 6 5 6 6 6 6 7 9 9
4 5 5 5 5 5 4 4 4 4 3 4 4 4 4 4 4 4 4 4 4 4 4 3 4 4 6 7 7 6 7 7 6 8 8 7 8 10
5 5 5 5 5 5 5 5 5 4 4 4 4 5 5 4 5 5 5 6 5 4 6 6 6 7 5 4 6 7 6 8 10 8 8 8 9 9
5 6 5 5 5 5 5 4 4 5 5 5 5 5 5 5 6 6 5 5 5 5 6 6 5 3 3 6 9 10 9 8 8 13 14 13 9 10
6 5 5 5 5 5 5 5 6 5 5 5 5 5 5 5 5 5 5 5 5 6 6 6 4 4 5 7 9 9 11 11 8 8 8 12 17 20
Wind_Direction
64 67 66 53 58 66 94 119 129 105 9 343 348 350 355 12 17 22 20 28 33 34 38 39 39 40 42 43 43 41 40 40 39 37 34 32 29 25
64 68 60 49 55 57 70 75 99 129 118 332 330 331 347 16 23 24 26 31 31 33 37 39 39 39 43 47 47 42 39 38 35 34 33 30 27 21
60 70 62 57 63 54 61 68 68 92 110 351 338 344 8 12 5 12 28 30 24 33 38 41 41 41 43 47 49 47 43 38 35 31 28 25 23 19
66 73 66 72 66 57 66 69 68 75 112 95 0 358 4 355 358 13 21 26 24 30 37 38 39 41 43 45 45 44 41 37 33 29 23 19 15 11
77 81 78 85 74 66 71 71 65 66 75 100 33 356 352 354 5 9 16 10 15 22 31 33 33 37 41 40 39 37 34 31 27 23 18 12 7 2
76 82 87 100 111 103 90 87 88 76 69 74 50 6 353 342 15 11 5 5 6 9 16 20 25 32 33 33 34 31 28 25 20 16 11 5 1 358
74 70 82 105 118 121 118 122 108 92 77 69 45 19 358 1 0 342 1 344 357 8 360 6 7 14 13 16 24 26 23 20 16 12 7 1 356 350
103 72 60 67 81 86 93 113 128 126 129 115 98 75 301 298 316 341 356 9 345 347 4 346 1 1 353 1 11 19 19 15 9 4 0 356 353 349
129 113 88 76 81 85 75 73 71 80 127 149 152 202 228 243 251 356 4 8 276 306 355 330 339 339 333 354 2 9 10 9 4 359 356 352 349 348
137 140 131 108 112 119 99 77 57 35 49 126 171 212 225 226 201 199 207 283 302 314 14 319 323 317 319 326 340 355 358 358 357 355 353 349 344 340
144 148 156 162 169 132 115 103 60 3 24 67 90 55 16 41 130 107 70 56 344 316 352 328 307 310 306 305 316 336 342 345 345 344 345 344 340 336
149 185 201 188 179 148 140 142 150 275 351 14 18 13 14 15 37 109 164 150 212 298 304 324 306 334 319 299 306 319 327 329 332 332 334 336 336 334
181 211 234 211 186 167 158 173 204 192 152 84 13 359 2 7 3 3 181 173 182 250 270 216 279 304 277 296 303 301 307 309 317 318 324 326 328 326
191 204 211 203 188 175 176 195 186 136 107 80 31 343 334 327 320 320 298 233 221 238 261 219 228 242 273 291 294 300 302 298 298 302 308 316 317 314
192 190 188 185 172 175 201 177 145 127 126 138 252 266 264 275 298 316 327 317 294 272 269 228 224 239 235 258 278 288 300 297 290 294 302 304 301 305
184 178 169 158 152 172 148 117 154 177 179 204 234 257 279 292 296 289 299 327 327 306 293 268 248 235 252 257 262 278 279 283 294 296 297 293 289 282
150 122 122 145 191 229 241 241 220 198 209 215 218 240 260 267 270 255 236 245 265 289 302 304 281 258 246 249 265 269 275 279 280 291 297 296 289 283
149 163 191 200 210 216 221 232 227 222 221 214 217 225 236 246 259 250 223 227 253 266 273 282 305 317 306 267 234 260 273 277 286 286 282 290 293 288
168 191 203 210 216 215 215 217 224 223 212 213 222 228 231 237 240 247 244 245 256 262 266 265 265 276 298 298 279 224 256 283 289 288 280 277 285 290
197 205 212 214 214 215 216 218 225 225 217 222 226 229 227 228 236 243 243 243 256 266 272 263 247 243 253 275 286 278 246 258 276 285 288 284 279 279
210 217 217 215 216 217 219 219 220 224 224 221 227 228 225 222 235 241 245 250 252 258 266 266 256 255 258 271 280 281 271 248 251 269 285 291 294 295
213 217 220 219 219 219 219 219 223 229 229 228 231 230 226 223 235 241 241 245 247 252 261 270 273 265 246 260 275 283 289 288 270 266 262 261 275 284
219 218 220 219 220 218 217 219 223 230 229 228 229 230 226 228 231 234 240 242 250 258 266 275 274 258 256 262 274 282 287 292 293 291 279 268 267 272